Flag for U.S.A. Weather past 2 weeks in Canton, Ohio, U.S.A.

Now
79 °F

Broken clouds.


Feels Like: 80 °F
Forecast: 62 / 83 °F
Wind: 16 mph from Southwest

Location: Akron-Canton Regional Airport

Current Time: May 25, 2015 at 7:58:32 PM

Latest Report: May 25, 2015 at 6:51 PM


Visibility: 10 mi

Pressure: 30.05 "Hg

Humidity: 56%

Dew point: 62 °F

Location of CantonLocation

Historic Weather in Canton — Graph

°F

Canton temperature yesterday

Maximum temperature yesterday: 81 °F (at 1:51 PM)
Minimum temperature yesterday: 53 °F (at 5:51 AM)
Average temperature yesterday: 69 °F

Past Weeks' High & Low Weather Summary

 TemperatureHumidityPressure
High86 °F (May 11, 2:51 PM)93% (May 17, 2:51 AM)30.49 "Hg (May 17, 2:51 AM)
Low37 °F (May 14, 3:51 AM)24% (May 24, 1:51 PM)29.85 "Hg (May 11, 5:51 PM)
Average63 °F61%30.14 "Hg
* Reported May 10 5:51 PM — May 25 5:51 PM, Canton, Weather by CustomWeather, © 2015

Note: Actual official high and low records may vary slightly from our data, if they occured in-between our weather recording intervals... More about our weather records

Advertising

Canton weather history for previous 24 hours

 ConditionsComfort  
Time TempWeatherWind HumidityBarometerVisibility
5:51 PM
Mon, May 25
78 °FBroken clouds.15 mph60%30.08 "Hg10 mi
4:51 PM82 °FBroken clouds.20 mph46%30.06 "Hg10 mi
3:51 PM83 °FMostly cloudy.16 mph48%30.06 "Hg10 mi
2:51 PM83 °FBroken clouds.17 mph48%30.07 "Hg10 mi
1:51 PM83 °FBroken clouds.20 mph46%30.09 "Hg10 mi
12:51 PM79 °FBroken clouds.16 mph48%30.11 "Hg10 mi
11:51 AM76 °FMore clouds than sun.14 mph52%30.11 "Hg10 mi
10:51 AM76 °FCloudy.16 mph50%30.13 "Hg10 mi
9:51 AM73 °FBroken clouds.17 mph53%30.14 "Hg10 mi
8:51 AM70 °FScattered clouds.12 mph57%30.14 "Hg10 mi
7:51 AM67 °FScattered clouds.10 mph61%30.13 "Hg10 mi
6:51 AM64 °FPassing clouds.9 mph65%30.12 "Hg10 mi
5:51 AM62 °FClear.9 mph67%30.11 "Hg10 mi
4:51 AM62 °FClear.7 mph67%30.11 "Hg10 mi
3:51 AM62 °FClear.7 mph67%30.11 "Hg10 mi
2:51 AM64 °FClear.8 mph63%30.11 "Hg10 mi
1:51 AM65 °FPassing clouds.8 mph61%30.13 "Hg10 mi
12:51 AM66 °FPassing clouds.8 mph56%30.14 "Hg10 mi
11:51 PM
Sun, May 24
67 °FPassing clouds.7 mph55%30.16 "Hg10 mi
10:51 PM70 °FPassing clouds.7 mph47%30.16 "Hg10 mi
9:51 PM70 °FPassing clouds.8 mph47%30.16 "Hg10 mi
8:51 PM70 °FScattered clouds.6 mph47%30.16 "Hg10 mi
7:51 PM75 °FScattered clouds.8 mph42%30.17 "Hg10 mi
Weather by CustomWeather, © 2015

See weather overviewHow to use our weather pages